Regional Weather Roundup
Issued by NWS

Home | Current Version | Previous Version | Graphics & Text | Print | Product List | Glossary Off
Versions: 1 2 3 4 5 6 7 8 9 10 11 12 13 14 15 16 17 18 19 20 21 22 23 24 25 26 27 28 29 30 31 32 33 34 35 36 37 38 39 40 41 42 43 44 45 46 47 48 49 50

000
ASUS43 KFSD 251602
RWRSD

WEATHER ROUNDUP FOR SOUTH DAKOTA
NATIONAL WEATHER SERVICE SIOUX FALLS SD
1000 AM CST TUE NOV 25 2014

NOTE: "FAIR" INDICATES FEW OR NO CLOUDS BELOW 12,000 FEET WITH NO
SIGNIFICANT WEATHER AND/OR OBSTRUCTIONS TO VISIBILITY.


SDZ001>005-009-010-012>017-251700-
NORTHWEST AND NORTH CENTRAL SOUTH DAKOTA

CITY           SKY/WX    TMP DP  RH WIND       PRES   REMARKS
BUFFALO          N/A     31  28  89 SW9       29.69F WCI  23
FAITH            N/A     29  23  78 SW7       29.81F WCI  22
MOBRIDGE       CLOUDY    29  26  89 SE9       29.83F WCI  20
$$

SDZ012>016-024>037-041>051-057-063-072>074-251700-
SOUTHWEST AND SOUTH CENTRAL SOUTH DAKOTA

CITY           SKY/WX    TMP DP  RH WIND       PRES   REMARKS
RAPID CTY ARPT CLOUDY    29  23  78 S3        29.79F
PIERRE         CLOUDY    28  25  88 E7        29.88F WCI  21
CUSTER         CLOUDY    25  13  60 W12       29.75F WCI  14
ELLSWORTH AFB  PTSUNNY   32  23  68 SW5       29.78F WCI  28
PHILIP         CLOUDY   N/A N/A N/A W3        29.86F
PINE RIDGE     CLOUDY    30  23  75 S3        29.84F
WINNER         FAIR      31  23  72 S5        29.92F WCI  26
$$

SDZ004>011-016>023-039-040-251700-
NORTHEAST SOUTH DAKOTA

CITY           SKY/WX    TMP DP  RH WIND       PRES   REMARKS
ABERDEEN       CLOUDY    26  20  77 S8        29.94S WCI  18
WATERTOWN      CLOUDY    22  15  75 S8        29.94F WCI  12
SISSETON         N/A     27  18  69 CALM      29.95S
$$

SDZ017-020-022-023-036>040-048>070-251700-
SOUTHEAST SOUTH DAKOTA

CITY           SKY/WX    TMP DP  RH WIND       PRES   REMARKS
SIOUX FALLS    PTSUNNY   24  13  62 S9        30.02S WCI  14
HURON          PTSUNNY   27  21  78 S7        29.97S WCI  19
MITCHELL       MOSUNNY   27  21  78 S5        29.99F WCI  22
YANKTON        SUNNY     27  19  74 SE7       30.04F WCI  19
$$

ABBREVIATIONS USED IN REMARKS
   TC - TEMPERATURE IN CELSIUS
  WCI - WIND CHILL INDEX
   HX - HEAT INDEX
  VSB - VISIBILITY



USA.gov is the U.S. government's official web portal to all federal, state and local government web resources and services.